Regional Weather Roundup
Issued by NWS Newport/Morehead, NC

Current Version | Previous Version | Graphics & Text | Print | Product List | Glossary Off
Versions: 1 2 3 4 5 6 7 8 9 10 11 12 13 14 15 16 17 18 19 20 21 22 23 24 25 26 27 28 29 30 31 32 33 34 35 36 37 38 39 40 41 42 43 44 45 46 47 48 49 50

000
ASUS42 KMHX 260210
RWRMHX
WEATHER ROUNDUP FOR EASTERN NORTH CAROLINA
NATIONAL WEATHER SERVICE NEWPORT/MOREHEAD CITY NC
900 PM EST TUE NOV 25 2014

NOTE: "FAIR" INDICATES FEW OR NO CLOUDS BELOW 12,000 FEET
WITH NO SIGNIFICANT WEATHER AND/OR OBSTRUCTIONS TO VISIBILITY

NCZ015>017-031-032-045>047-102-103-260300-
NORTH COAST

CITY           SKY/WX    TMP DP  RH WIND       PRES   REMARKS
EDENTON        DRIZZLE   53  51  94 CALM      30.12R
ELIZABETH CITY CLOUDY    58  52  80 CALM      30.13R
KITTY HAWK     CLOUDY    57  55  93 CALM      30.10R
MANTEO         CLOUDY    55  54  94 NE5       30.11R

$$

NCZ045>047-081-094-103-104-260300-
CENTRAL COAST

CITY           SKY/WX    TMP DP  RH WIND       PRES   REMARKS
FRISCO         CLOUDY    59  59 100 VRB5      30.08F
SWANQUARTER      N/A     61 N/A N/A E2        30.03F

$$

NCZ095-097-098-100-101-260300-
SOUTHERN COAST

CITY           SKY/WX    TMP DP  RH WIND       PRES   REMARKS
BEAUFORT       RAIN      63  62  97 E5        30.06F FOG
CEDAR ISLAND     N/A     59 N/A N/A NE6       30.12S
JACKSONVILLE   LGT RAIN  62  61  96 E5        30.06F FOG
PINEY ISLAND   LGT RAIN  63  59  87 E6        30.08F FOG
WILMINGTON     RAIN      63  62  97 E8        30.05F FOG


$$

NCZ011>013-027>030-043-044-078>080-089-090>093-098-260300-
COASTAL PLAIN

CITY           SKY/WX    TMP DP  RH WIND       PRES   REMARKS
AHOSKIE        HVY RAIN  49  47  93 CALM      30.13R
CLINTON        DRIZZLE   53  51  95 CALM      30.11R
ELIZABETHTOWN  RAIN      55  55  99 CALM      30.10R
GOLDSBORO      CLOUDY    53  53  98 NE3       30.07F
GREENVILLE     LGT RAIN  54  54 100 CALM      30.11F
HAVELOCK       LGT RAIN  63  61  93 NE5       30.08F
KENANSVILLE    CLOUDY    54  51  89 N3        30.10S
KINSTON        CLOUDY    54  52  94 N6        30.09F
NEW BERN       LGT RAIN  63  60  90 N6        30.09F FOG
RICHLANDS      CLOUDY    55  52  88 NW5       30.08F
ROCKY MOUNT    LGT RAIN  51  49  92 NE3       30.10F
WASHINGTON     CLOUDY    56  54  94 CALM      30.11S
WHITEVILLE     DRIZZLE   63  61  94 CALM      30.05F

$$

AMZ130-135-150-152-154-156-158-170-250-252-270-ANZ085-086-088-633-658-670-260300-
MARINE OBSERVATIONS

STATION/POSITION TIME  TEMP    WIND        PRES    WAVE   SWELL
                       AIR SEA DIR/SP/G            HT/PER HT/PER
                 (UTC) (F)     (DEG/KT/KT) (MB)    (FT/S) (FT/S)
CHESAPEAKE LIGHT 0100   56      70/ 17/ 18 1019.1
64 E VA BEACH    0200   61 64   60/ 10/ 12 1019.0    4/ 9   3/ 9
DUCK             0200   58 59   70/ 12/ 13 1018.8
2 E DUCK         0200      58                N/A     3/ 9
10 NE DUCK       0200      59                N/A     4/ 8   2/11
OREGON INLET     0200   58 58   10/  7/  8 1019.1
13E OREGON INLT  0200      63                N/A     4/ 9   2/11
HATTERAS CG      0200   59 63   10/  5/  6 1018.8
DIAMOND BUOY     0200   67     340/  8/ 12 1018.2    5/ 9   5/ 9
17 S OCRACOKE    NOT AVBL
CAPE LOOKOUT     0100   63      40/  8/  9 1017.7
BEAUFORT LAB     0200   62 59  340/  2/  3 1017.5
30 SE NEW RIVER  0200   67 68   30/  4/  6 1018.3    4/ 9   3/ 9
5 SE WRIGHTSVLE  0100   59 59  120/  8/ 10 1017.9
225 S CAPE HAT   0146   75 74  180/ 16/ 17 1018.3    6/ 7
41 SE CHARLESTON 0200   69 75   60/ 14/ 17 1014.7    4/ 9   3/ 9

$$



USA.gov is the U.S. government's official web portal to all federal, state and local government web resources and services.